MDT,Max TemperatureF,Mean TemperatureF,Min TemperatureF,Max Dew PointF,MeanDew PointF,Min DewpointF,Max Humidity, Mean Humidity, Min Humidity, Max Sea Level PressureIn, Mean Sea Level PressureIn, Min Sea Level PressureIn, Max VisibilityMiles, Mean VisibilityMiles, Min VisibilityMiles, Max Wind SpeedMPH, Mean Wind SpeedMPH, Max Gust SpeedMPH,PrecipitationIn, CloudCover, Events, WindDirDegrees
2013-6-1,69,50,32,16,9,0,35,19,8,30.30,30.25,30.21,10,10,10,18,9,21,0.00,0,,320
2013-6-2,75,56,37,25,17,7,33,22,11,30.31,30.21,30.09,10,10,5,28,8,44,0.00,1,,303
2013-6-3,78,58,39,36,26,19,49,32,11,30.17,30.11,30.05,10,10,4,28,8,46,0.00,2,Rain-Thunderstorm,302
2013-6-4,71,56,42,46,32,27,63,42,21,30.21,30.18,30.15,10,10,5,36,9,51,0.04,3,Rain-Thunderstorm,324
2013-6-5,78,60,42,37,25,12,70,33,8,30.23,30.17,30.09,10,10,10,28,13,41,0.00,0,,328
2013-6-6,80,60,39,32,25,18,49,29,10,30.26,30.20,30.14,10,10,10,16,6,25,0.00,1,,244
2013-6-7,68,54,41,37,32,27,65,41,28,30.27,30.20,30.10,10,10,10,17,7,22,0.00,1,Thunderstorm,304
2013-6-8,80,61,42,34,28,21,57,31,13,30.17,30.11,30.06,10,10,10,26,10,39,0.00,1,,331
2013-6-9,86,64,42,32,24,16,53,24,7,30.27,30.22,30.17,10,10,10,22,9,36,0.00,0,,327
2013-6-10,86,67,48,37,27,23,37,23,11,30.31,30.24,30.15,10,10,10,18,9,38,0.00,1,Rain-Thunderstorm,355
2013-6-11,86,67,48,32,19,5,38,20,5,30.31,30.22,30.14,10,10,10,32,13,47,0.00,0,,299
2013-6-12,86,67,48,25,19,12,30,17,9,30.40,30.32,30.24,10,10,10,31,10,39,0.00,0,,313
2013-6-13,86,67,48,37,24,12,36,21,11,30.37,30.29,30.18,10,9,2,33,9,47,0.00,2,Rain-Thunderstorm,292
2013-6-14,82,68,53,39,27,7,54,25,8,30.31,30.20,30.09,10,10,10,21,9,33,0.00,2,Thunderstorm,354
2013-6-15,78,58,39,43,25,7,67,29,12,30.32,30.26,30.19,10,10,7,29,7,53,0.00,2,Rain-Thunderstorm,324
2013-6-16,71,58,44,48,36,30,76,47,23,30.40,30.33,30.29,10,10,7,34,11,45,0.05,2,Rain-Thunderstorm,333
2013-6-17,73,58,44,41,35,28,81,45,20,30.37,30.32,30.26,10,10,10,23,10,39,0.00,2,Thunderstorm,299
2013-6-18,69,56,42,48,40,32,77,54,35,30.35,30.26,30.14,10,10,4,16,7,20,0.50,1,Rain-Thunderstorm,325
2013-6-19,80,60,41,41,26,9,76,36,6,30.16,30.10,30.03,10,9,3,24,12,37,0.00,1,,278
2013-6-20,78,60,41,23,16,9,39,19,7,30.20,30.13,30.09,10,8,2,24,11,31,0.00,3,,263
2013-6-21,82,60,39,25,19,14,42,21,8,30.24,30.16,30.08,10,9,4,24,8,31,0.00,2,,305
2013-6-22,78,61,44,27,19,10,39,20,7,30.19,30.13,30.04,10,10,7,20,10,31,0.00,1,,323
2013-6-23,78,61,44,25,16,10,29,17,11,30.21,30.13,30.05,10,10,4,21,10,25,0.00,1,,286
2013-6-24,78,61,44,25,15,9,37,18,7,30.19,30.12,30.05,10,10,4,24,10,34,0.00,1,,275
2013-6-25,82,62,42,28,20,12,31,19,11,30.29,30.20,30.14,10,10,10,20,10,26,0.00,0,,321
2013-6-26,86,70,53,34,29,27,36,22,12,30.38,30.33,30.28,10,10,10,18,11,22,0.00,0,,290
2013-6-27,89,73,57,36,29,25,33,20,10,30.50,30.43,30.36,10,10,10,23,12,31,0.00,0,,313
2013-6-28,86,72,57,43,37,32,52,32,15,30.54,30.49,30.39,10,10,5,33,6,38,0.00,1,Thunderstorm,172
2013-6-29,80,66,51,54,43,39,76,50,23,30.47,30.43,30.34,10,10,7,20,9,26,0.04,2,Rain-Thunderstorm,299
2013-6-30,75,60,46,54,46,41,94,65,31,30.46,30.38,30.26,10,10,4,26,8,41,0.08,2,Rain-Thunderstorm,348